Location: Asheville, NC
(35.6000°N, 82.5500°W)
Time: 16:42:20
(UTC-05:00)

STRAND 1 - Visible Passes

Search period start: 19 January 2018 00:00
Search period end: 29 January 2018 00:00
Orbit: 768 x 782 km, 98.5° (Epoch: 18 January)

Date Brightness Start Highest point End Pass type
(mag) Time Alt. Az. Time Alt. Az. Time Alt. Az.
19 Jan ? 06:03:20 10° ESE 06:06:29 17° ENE 06:09:38 10° NNE visible
19 Jan ? 20:00:37 37° S 20:00:37 37° S 20:03:41 10° S visible
20 Jan ? 07:06:15 10° SSE 07:11:17 72° ENE 07:16:22 10° N visible
20 Jan ? 19:26:10 26° SE 19:26:10 26° SE 19:29:06 10° SSE visible
20 Jan ? 21:06:34 16° WSW 21:06:34 16° WSW 21:07:50 10° SW visible
21 Jan ? 06:33:03 10° SE 06:37:33 33° ENE 06:42:04 10° N visible
21 Jan ? 18:51:43 13° ESE 18:51:43 13° ESE 18:53:03 10° ESE visible
21 Jan ? 20:32:07 32° SW 20:32:07 32° SW 20:34:55 10° SSW visible
22 Jan ? 06:01:00 10° E 06:03:58 16° ENE 06:06:58 10° NNE visible
22 Jan ? 19:57:40 42° SSE 19:57:40 42° SSE 20:01:09 10° S visible
23 Jan ? 07:03:44 10° SSE 07:08:46 68° ENE 07:13:50 10° N visible
23 Jan ? 19:23:13 27° ESE 19:23:13 27° ESE 19:26:28 10° SSE visible
23 Jan ? 21:03:37 19° WSW 21:03:37 19° WSW 21:05:25 10° SW visible
24 Jan ? 06:30:37 10° SE 06:35:02 31° ENE 06:39:29 10° N visible
24 Jan ? 18:48:46 13° ESE 18:48:46 13° ESE 18:50:14 10° ESE visible
24 Jan ? 20:29:09 38° SW 20:29:09 38° SW 20:32:26 10° SSW visible
25 Jan ? 05:58:41 10° E 06:01:29 15° ENE 06:04:17 10° NNE visible
25 Jan ? 19:54:41 48° SSE 19:54:41 48° SSE 19:58:35 10° S visible
26 Jan ? 07:01:14 10° SSE 07:06:14 64° ENE 07:11:17 10° N visible
26 Jan ? 19:20:13 27° ESE 19:20:13 27° ESE 19:23:51 10° SSE visible
26 Jan ? 21:00:37 23° WSW 21:00:37 23° WSW 21:03:00 10° SW visible
27 Jan ? 06:28:10 10° SE 06:32:31 29° ENE 06:36:53 10° N visible
27 Jan ? 18:45:45 12° E 18:45:45 12° E 18:47:22 10° ESE visible
27 Jan ? 20:26:08 48° SW 20:26:08 48° SW 20:29:56 10° SSW visible
28 Jan ? 05:56:23 10° E 05:58:58 14° ENE 06:01:35 10° NNE visible
28 Jan ? 19:51:40 53° SE 19:51:40 53° SE 19:56:02 10° S visible
28 Jan ? 21:32:03 11° W 21:32:03 11° W 21:32:32 10° W visible
